Simultaneous Nadir Overpasses (SNOs) Predictions

Prediction of SNOs between AQUA and METOP-B Satellite Orbit:

Table of predicted SNOs for the next 14.0 days since TLE Epoch: 6/27/2015
Index Date (AQUA) Time (AQUA) Lat,Lon (AQUA) SZA (AQUA ) Date (METOP-B) Time (METOP-B) Lat,Lon (METOP-B) SZA (METOP-B ) Distance(km) Time Diff (sec)
1 06/27/2015 03:22:18 73.83, 123.81 50.53 06/27/2015 03:23:07 73.81, 123.81 50.49 2.82 49
2 06/29/2015 21:17:27 73.36,-144.02 50.16 06/29/2015 21:16:17 73.31,-145.59 50.17 50.51 70
3 06/29/2015 22:07:00 -73.77, 22.76 129.41 06/29/2015 22:06:49 -73.79, 22.84 129.39 3.12 11
4 06/29/2015 22:56:29 73.83,-169.75 50.66 06/29/2015 22:57:28 73.83,-169.71 50.66 1.12 59
5 07/02/2015 16:51:45 73.70, -78.28 50.70 07/02/2015 16:50:32 73.68, -78.33 50.70 2.33 73
6 07/02/2015 17:41:12 -73.79, 89.17 129.20 07/02/2015 17:41:12 -73.77, 89.19 129.22 2.42 0
7 07/02/2015 18:30:41 73.85,-103.35 50.88 07/02/2015 18:31:50 73.86,-103.25 50.87 3.08 69
8 07/05/2015 12:25:56 73.68, -11.80 50.93 07/05/2015 12:24:54 73.70, -11.88 50.96 3.02 62
9 07/05/2015 13:15:23 -73.77, 155.65 128.98 07/05/2015 13:15:34 -73.79, 155.66 128.96 2.34 11
10 07/05/2015 14:04:57 74.10, -37.45 51.39 07/05/2015 14:06:07 74.13, -36.19 51.36 38.60 70
11 07/08/2015 08:00:08 73.74, 54.52 51.29 07/08/2015 07:59:16 73.72, 54.57 51.27 3.06 52
12 07/08/2015 08:49:33 -73.77,-137.90 128.68 07/08/2015 08:49:56 -73.76,-138.00 128.69 3.36 23




NCC Satellite Simultaneous Nadir Overpasses (SNOs) Prediction Service
